Location: Corralito
(10.2667°N, 66.9500°W)
Time: 20:31:06
(UTC+00:00)

FENGYUN 1C DEB - Visible Passes

Search period start: 12 July 2024 00:00
Search period end: 22 July 2024 00:00
Orbit: 767 x 1065 km, 98.6° (Epoch: 11 July)

Date Brightness Start Highest point End Pass type
(mag) Time Alt. Az. Time Alt. Az. Time Alt. Az.
15 Jul ? 02:39:58 10° N 02:40:01 10° N 02:40:01 10° N visible
16 Jul ? 02:47:19 10° N 02:47:22 10° N 02:47:22 10° N visible
17 Jul ? 02:54:42 10° N 02:54:43 10° N 02:54:43 10° N visible
